Location: São Paulo
(23.5507°S, 46.6334°W)
Time: 05:16:19
(UTC-03:00)

BlueWalker 3 - Visible Passes

Search period start: 20 January 2026 00:00
Search period end: 30 January 2026 00:00
Orbit: 451 x 463 km, 53.2° (Epoch: 19 January)

Date Brightness Start Highest point End Pass type
(mag) Time Alt. Az. Time Alt. Az. Time Alt. Az.
20 Jan 4.6 04:41:06 10° NE 04:42:11 11° ENE 04:43:17 10° ENE visible
22 Jan 1.7 05:04:58 10° NW 05:08:35 85° SW 05:12:15 10° SE visible
23 Jan 2.0 04:31:08 23° NNW 04:33:12 63° NE 04:36:50 10° SE visible
24 Jan 2.6 03:57:32 40° NE 03:57:51 41° NE 04:01:18 10° SE visible
25 Jan 4.1 03:23:52 21° E 03:23:52 21° E 03:25:38 10° ESE visible
25 Jan 3.8 04:57:37 10° W 04:59:57 17° SW 05:02:24 10° S visible
26 Jan 3.3 04:23:51 22° WSW 04:24:27 23° SW 04:27:25 10° S visible
27 Jan 3.4 03:50:00 27° SSW 03:50:00 27° SSW 03:52:17 10° SSE visible
28 Jan 4.5 03:16:04 17° SSE 03:16:04 17° SSE 03:17:02 10° SSE visible
